[[{"header":{"parameterUnit":"m.s-1","parameterCategory":1,"la1":30.2991,"la2":30.254,"lo1":-89.0895,"lo2":-89.0444,"dy":0.0017,"dx":0.0017,"nx":28,"ny":28,"refTime":"2025-12-05T09:00:00:Z","depth":0,"parameterNumber":2,"parameterNumberName":"U-component_of_WINDS"},"data":[0,0,0,0,0,0,0,0,0,0,0,0,0,0,0,0,0,0,0,0,0,0,0,0,0,0,0,0,0,0,0,0,0,0,0,0,0,0,0,0,0,0,0,0,0,0,0,0,0,0,0,0,0,0,0,0,0,0,-2.4447,-2.4447,0,-2.447,-2.447,-2.447,-2.441,-2.4408,-2.4406,-2.4404,-2.4429,-2.4431,-2.4433,0,0,0,0,0,0,0,0,0,0,0,0,0,-2.4351,-2.4353,-2.4446,-2.4447,-2.4447,-2.4469,-2.447,-2.447,-2.441,-2.4408,-2.4406,-2.4403,-2.4428,-2.4431,-2.4434,0,0,0,0,0,0,0,0,0,0,0,0,0,-2.4385,-2.4354,-2.4446,-2.442,-2.4418,-2.4469,-2.447,-2.447,-2.4411,-2.4408,-2.4405,-2.4402,-2.4427,-2.443,-2.4434,-2.4513,0,0,-2.4445,-2.4447,0,0,0,0,0,0,0,0,-2.4384,-2.4389,-2.4423,-2.4422,-2.4419,-2.4434,-2.4445,-2.4485,-2.4411,-2.4413,-2.4404,-2.4401,-2.4433,-2.4436,-2.4446,-2.4514,-2.4515,-2.4445,-2.4447,-2.4449,-2.445,0,0,0,0,0,0,0,-2.4381,-2.4388,-2.4456,-2.4424,-2.4422,-2.4407,-2.4409,-2.4452,-2.4439,-2.4413,-2.4409,-2.4412,-2.4431,-2.4443,-2.4446,-2.4515,-2.4445,-2.4448,-2.4451,-2.4452,-2.465,-2.4653,0,0,0,0,0,0,-2.4382,-2.4386,-2.4455,-2.4456,-2.4394,-2.4411,-2.4413,-2.4432,-2.4438,-2.4436,-2.4415,-2.4409,-2.4438,-2.4442,-2.4447,-2.454,-2.4449,-2.4452,-2.4454,-2.4647,-2.465,-2.4654,0,0,0,0,0,0,-2.438,-2.4389,-2.4454,-2.442,-2.4427,-2.4416,-2.4438,-2.4434,-2.4446,-2.4439,-2.4436,-2.4429,-2.4436,-2.4442,-2.4497,-2.454,-2.4454,-2.4457,-2.4643,-2.4648,-2.4652,-2.4728,0,0,0,0,0,0,-2.4378,-2.4389,-2.4418,-2.4421,-2.4429,-2.4504,-2.444,-2.4437,-2.4452,-2.4445,-2.4452,-2.4451,-2.4434,-2.4492,-2.4501,-2.4544,-2.446,-2.4639,-2.4645,-2.4651,-2.4721,-2.4734,-2.4746,0,0,0,0,0,-2.4375,-2.4439,-2.442,-2.4429,-2.4466,-2.4506,-2.4511,-2.4491,-2.4456,-2.4486,-2.4482,-2.445,-2.4534,-2.4498,-2.4507,-2.4552,-2.4636,-2.4644,-2.465,-2.4716,-2.4732,-2.4745,0,0,0,0,0,0,-2.4441,-2.4439,-2.4418,-2.4485,-2.4496,-2.4496,-2.4533,-2.4508,-2.453,-2.4523,-2.4497,-2.4499,-2.4559,-2.4561,-2.4521,-2.4629,-2.4579,-2.4589,-2.4626,-2.4641,-2.4653,-2.4652,-2.4463,0,0,0,0,0,-2.4464,-2.4496,-2.4492,-2.4551,-2.4558,-2.4545,-2.4562,-2.4545,-2.4556,-2.4561,-2.456,-2.4573,-2.4601,-2.4621,-2.4647,-2.4721,-2.4722,-2.4757,-2.4769,-2.4779,-2.4787,-2.4827,-2.4843,-2.4677,-2.4677,-2.4676,0,0,-2.451,-2.4513,-2.4535,-2.4565,-2.4572,-2.4607,-2.4549,-2.4588,-2.4614,-2.4567,-2.4619,-2.4619,-2.4631,-2.4696,-2.4725,-2.4699,-2.4833,-2.4787,-2.4795,-2.4799,-2.4836,-2.4852,-2.4866,-2.4681,-2.4681,-2.468,0,0,-2.4613,-2.4618,-2.4669,-2.4677,-2.4688,-2.4679,-2.4691,-2.4695,-2.4693,-2.4745,-2.471,-2.4741,-2.4791,-2.4801,-2.4813,-2.4921,-2.4893,-2.493,-2.4993,-2.5033,-2.5046,-2.5057,-2.5097,-2.5111,-2.4938,-2.4938,-2.4938,0,-2.467,-2.4721,-2.4698,-2.4739,-2.4754,-2.4712,-2.4763,-2.4772,-2.4792,-2.4803,-2.4774,-2.4837,-2.4842,-2.4909,-2.4936,-2.4946,-2.496,-2.4929,-2.5046,-2.5057,-2.5067,-2.5105,-2.5119,-2.4943,-2.4942,-2.4942,-2.4941,0,-2.4791,-2.4827,-2.4866,-2.4886,-2.4905,-2.4951,-2.4935,-2.4957,-2.4939,-2.4933,-2.4987,-2.4991,-2.5018,-2.5032,-2.5015,-2.5098,-2.5082,-2.505,-2.4999,-2.5088,-2.5123,-2.5137,-2.4949,-2.4948,-2.4946,-2.4945,0,0,-2.4937,-2.4943,-2.4958,-2.4967,-2.4977,-2.5004,-2.5049,-2.5075,-2.5095,-2.511,-2.5147,-2.5191,-2.5162,-2.5175,-2.5158,-2.5193,-2.5279,-2.5156,-2.5156,-2.518,-2.5371,-2.5396,-2.5413,-2.526,-2.5263,-2.5265,-2.5371,0,-2.5039,-2.5116,-2.5096,-2.5173,-2.5206,-2.5167,-2.5206,-2.5216,-2.5212,-2.524,-2.5235,-2.5267,-2.5225,-2.5233,-2.5265,-2.5262,-2.5317,-2.5253,-2.5296,-2.5297,-2.5295,-2.5431,-2.5457,-2.5557,-2.5384,-2.5386,-2.5388,0,-2.5169,-2.519,-2.5269,-2.5274,-2.5287,-2.5323,-2.5346,-2.5372,-2.5384,-2.5378,-2.5393,-2.537,-2.5415,-2.5363,-2.5424,-2.5382,-2.5398,-2.5399,-2.5402,-2.5406,-2.5349,-2.544,-2.5588,-2.5603,-2.5409,-2.5407,-2.5406,0,-2.527,-2.5316,-2.537,-2.5379,-2.5386,-2.5412,-2.5416,-2.5424,-2.5441,-2.5461,-2.5472,-2.5497,-2.5511,-2.5531,-2.5515,-2.5479,-2.558,-2.5527,-2.5577,-2.5578,-2.5601,-2.56,-2.5755,-2.561,-2.5609,-2.5609,-2.5609,0,-2.5387,-2.5438,-2.5416,-2.5449,-2.5505,-2.5482,-2.5538,-2.5537,-2.5545,-2.5578,-2.5545,-2.5577,-2.5553,-2.5583,-2.5571,-2.5625,-2.5631,-2.5628,-2.5624,-2.5632,-2.5632,-2.5643,-2.5636,-2.5613,-2.5612,-2.5611,-2.5611,0,-2.5508,-2.5496,-2.5552,-2.5554,-2.5555,-2.5597,-2.5598,-2.5629,-2.5622,-2.5665,-2.5673,-2.5663,-2.5696,-2.5682,-2.5717,-2.5709,-2.5778,-2.5764,-2.5774,-2.5771,-2.5823,-2.5819,-2.5991,-2.6013,-2.5853,-2.5854,-2.5855,0,-2.5585,-2.5623,-2.5629,-2.5648,-2.5655,-2.5687,-2.5704,-2.5683,-2.5703,-2.5718,-2.5748,-2.5779,-2.5802,-2.5857,-2.5853,-2.588,-2.5868,-2.5926,-2.5872,-2.5878,-2.587,-2.5869,-2.5873,-2.5938,-2.594,-2.5941,-2.5942,0,-2.5722,-2.5714,-2.574,-2.5765,-2.5787,-2.5805,-2.5821,-2.5839,-2.5818,-2.5842,-2.5876,-2.5894,-2.593,-2.5961,-2.5985,-2.5989,-2.5963,-2.5959,-2.5973,-2.5981,-2.5986,-2.5985,-2.5805,-2.5956,-2.5954,-2.5953,-2.5953,-2.5952,-2.5824,-2.5856,-2.5866,-2.5896,-2.5906,-2.5921,-2.5951,-2.5948,-2.5976,-2.6003,-2.5989,-2.6029,-2.6039,-2.6069,-2.6077,-2.6108,-2.6085,-2.6104,-2.6109,-2.6114,-2.6122,-2.598,-2.6112,-2.6111,-2.6111,-2.6111,-2.611,0,-2.596,-2.5964,-2.5993,-2.6016,-2.604,-2.6013,-2.6028,-2.6051,-2.6086,-2.6098,-2.6122,-2.6161,-2.6191,-2.6189,-2.6217,-2.6243,-2.6231,-2.6251,-2.6249,-2.6251,-2.614,-2.6126,-2.6259,-2.6259,-2.6259,-2.6259,-2.6259,-2.6259,-2.6034,-2.6088,-2.6081,-2.6139,-2.6143,-2.6182,-2.6193,-2.6207,-2.6217,-2.6262,-2.6287,-2.6286,-2.6292,-2.632,-2.6347,-2.6346,-2.6358,-2.6382,-2.6377,-2.6273,-2.6259,-2.6244,-2.6231,-2.6385,-2.6385,-2.6485,-2.6486,-2.6487]},{"header":{"parameterUnit":"m.s-1","parameterCategory":1,"la1":30.2991,"la2":30.254,"lo1":-89.0895,"lo2":-89.0444,"dy":0.0017,"dx":0.0017,"nx":28,"ny":28,"refTime":"2025-12-05T09:00:00:Z","depth":0,"parameterNumber":3,"parameterNumberName":"V-component_of_WINDS"},"data":[0,0,0,0,0,0,0,0,0,0,0,0,0,0,0,0,0,0,0,0,0,0,0,0,0,0,0,0,0,0,0,0,0,0,0,0,0,0,0,0,0,0,0,0,0,0,0,0,0,0,0,0,0,0,0,0,0,0,-1.9223,-1.9223,0,-1.9279,-1.928,-1.9281,-1.925,-1.9248,-1.9247,-1.9245,-1.9303,-1.9306,-1.9309,0,0,0,0,0,0,0,0,0,0,0,0,0,-1.9087,-1.9089,-1.9223,-1.9223,-1.9224,-1.9279,-1.928,-1.9281,-1.925,-1.9248,-1.9246,-1.9245,-1.9302,-1.9306,-1.9309,0,0,0,0,0,0,0,0,0,0,0,0,0,-1.9145,-1.909,-1.9223,-1.9215,-1.9215,-1.9279,-1.928,-1.9281,-1.9251,-1.9248,-1.9246,-1.9244,-1.9301,-1.9305,-1.931,-1.9383,0,0,-1.9323,-1.9325,0,0,0,0,0,0,0,0,-1.9141,-1.915,-1.9216,-1.9216,-1.9216,-1.9255,-1.9253,-1.9315,-1.9251,-1.9237,-1.9245,-1.9243,-1.9289,-1.9294,-1.931,-1.9386,-1.9389,-1.9324,-1.9326,-1.9328,-1.9329,0,0,0,0,0,0,0,-1.9137,-1.9147,-1.9245,-1.9217,-1.9217,-1.9209,-1.9215,-1.9265,-1.9275,-1.9238,-1.9236,-1.9243,-1.9289,-1.9306,-1.9311,-1.9389,-1.9323,-1.9327,-1.933,-1.9332,-1.9528,-1.9531,0,0,0,0,0,0,-1.9134,-1.9144,-1.9243,-1.9247,-1.9172,-1.9213,-1.922,-1.9245,-1.9275,-1.9277,-1.9245,-1.9242,-1.9299,-1.9306,-1.9313,-1.9401,-1.9328,-1.9332,-1.9335,-1.9526,-1.9529,-1.9532,0,0,0,0,0,0,-1.9131,-1.9143,-1.9241,-1.9195,-1.9207,-1.9218,-1.9247,-1.9247,-1.9264,-1.928,-1.9282,-1.9261,-1.9298,-1.9307,-1.9366,-1.9403,-1.9334,-1.9338,-1.9523,-1.9527,-1.953,-1.9579,0,0,0,0,0,0,-1.9127,-1.9142,-1.9171,-1.9196,-1.9209,-1.9294,-1.9249,-1.925,-1.9272,-1.9268,-1.9295,-1.9297,-1.9297,-1.9359,-1.937,-1.9408,-1.9342,-1.9519,-1.9524,-1.9529,-1.9574,-1.9584,-1.9592,0,0,0,0,0,-1.9123,-1.9182,-1.9173,-1.9185,-1.9245,-1.9296,-1.9304,-1.9302,-1.9275,-1.9304,-1.9314,-1.9297,-1.9397,-1.9366,-1.9378,-1.9417,-1.9517,-1.9523,-1.9529,-1.957,-1.9582,-1.9592,0,0,0,0,0,0,-1.9162,-1.9185,-1.9175,-1.9244,-1.9268,-1.9291,-1.9327,-1.9314,-1.9346,-1.9341,-1.9337,-1.9343,-1.9405,-1.9417,-1.9382,-1.949,-1.9453,-1.9461,-1.948,-1.9492,-1.9501,-1.9497,-1.9346,0,0,0,0,0,-1.9178,-1.9218,-1.9236,-1.9296,-1.9308,-1.9315,-1.9337,-1.9334,-1.9358,-1.9368,-1.9382,-1.9407,-1.9443,-1.9468,-1.9503,-1.9575,-1.958,-1.9608,-1.9617,-1.9624,-1.9632,-1.9671,-1.9683,-1.955,-1.955,-1.955,0,0,-1.9213,-1.9231,-1.9256,-1.9304,-1.9322,-1.9363,-1.9324,-1.9369,-1.9399,-1.9375,-1.9432,-1.9443,-1.947,-1.9536,-1.9566,-1.9548,-1.967,-1.9632,-1.9637,-1.9641,-1.9678,-1.9691,-1.9702,-1.9554,-1.9554,-1.9553,0,0,-1.9298,-1.9315,-1.9367,-1.9386,-1.9413,-1.9418,-1.943,-1.9454,-1.946,-1.9517,-1.95,-1.9535,-1.9599,-1.9619,-1.9637,-1.9728,-1.9713,-1.9739,-1.9787,-1.9825,-1.9836,-1.9845,-1.9878,-1.9889,-1.9746,-1.9747,-1.9747,0,-1.9338,-1.9399,-1.9395,-1.9441,-1.9462,-1.9442,-1.9494,-1.9512,-1.955,-1.9565,-1.9544,-1.9623,-1.964,-1.971,-1.9732,-1.9747,-1.9761,-1.9737,-1.9834,-1.9844,-1.9852,-1.9884,-1.9896,-1.975,-1.9749,-1.9749,-1.9749,0,-1.9447,-1.9489,-1.9527,-1.9564,-1.959,-1.9638,-1.9641,-1.9667,-1.9661,-1.9667,-1.9725,-1.9744,-1.9782,-1.9798,-1.9793,-1.9868,-1.9856,-1.9835,-1.9798,-1.9868,-1.9897,-1.9909,-1.9754,-1.9753,-1.9752,-1.9751,0,0,-1.9559,-1.9592,-1.9606,-1.9623,-1.9651,-1.9684,-1.9731,-1.9768,-1.9791,-1.9817,-1.9857,-1.9911,-1.9891,-1.9912,-1.9908,-1.9941,-2.0012,-1.9916,-1.9917,-1.9934,-2.0096,-2.0113,-2.0127,-2.0002,-2.0004,-2.0006,-2.0094,0,-1.9646,-1.9729,-1.9726,-1.9804,-1.9843,-1.9824,-1.9865,-1.9886,-1.9893,-1.9927,-1.9934,-1.9972,-1.9943,-1.9956,-1.9988,-1.9997,-2.0045,-1.999,-2.0039,-2.0041,-2.0034,-2.0142,-2.0159,-2.0242,-2.0106,-2.0107,-2.0109,0,-1.9759,-1.9789,-1.9871,-1.9893,-1.9909,-1.9946,-1.998,-2.0012,-2.0036,-2.0039,-2.0061,-2.0052,-2.0099,-2.006,-2.0125,-2.0088,-2.0108,-2.0115,-2.0118,-2.0124,-2.008,-2.0151,-2.0268,-2.0281,-2.0127,-2.0125,-2.0124,0,-1.9833,-1.9894,-1.9951,-1.9965,-1.9993,-2.0019,-2.0032,-2.0053,-2.0076,-2.0105,-2.0119,-2.0153,-2.0172,-2.0199,-2.0198,-2.017,-2.0264,-2.0225,-2.0268,-2.0268,-2.029,-2.0289,-2.0413,-2.0301,-2.0301,-2.03,-2.03,0,-1.9931,-1.9982,-1.9985,-2.002,-2.0076,-2.0071,-2.0127,-2.0136,-2.0155,-2.0192,-2.0176,-2.021,-2.0207,-2.0242,-2.0242,-2.0296,-2.0304,-2.0308,-2.0307,-2.031,-2.0309,-2.0323,-2.0318,-2.0304,-2.0303,-2.0302,-2.0302,0,-2.0025,-2.0028,-2.0089,-2.0109,-2.0116,-2.0156,-2.0174,-2.0206,-2.0211,-2.0257,-2.0267,-2.0275,-2.0315,-2.0317,-2.0362,-2.0362,-2.0428,-2.0421,-2.042,-2.0419,-2.0462,-2.0459,-2.0601,-2.0619,-2.0494,-2.0495,-2.0496,0,-2.0088,-2.0126,-2.0151,-2.0174,-2.0188,-2.0226,-2.0249,-2.0245,-2.0269,-2.0299,-2.0328,-2.0366,-2.0397,-2.0461,-2.047,-2.0505,-2.0499,-2.0546,-2.0504,-2.0505,-2.05,-2.0498,-2.0502,-2.0554,-2.0556,-2.0557,-2.0558,0,-2.0199,-2.0199,-2.0232,-2.0267,-2.0294,-2.0321,-2.0345,-2.0365,-2.0364,-2.0392,-2.0432,-2.0456,-2.0502,-2.054,-2.0574,-2.0586,-2.0572,-2.0571,-2.0583,-2.0586,-2.0585,-2.0587,-2.0444,-2.0568,-2.0567,-2.0566,-2.0566,-2.0565,-2.028,-2.0313,-2.0336,-2.0373,-2.0391,-2.0415,-2.0447,-2.0455,-2.0489,-2.0526,-2.0522,-2.0567,-2.0588,-2.0632,-2.0647,-2.0682,-2.0665,-2.0682,-2.0687,-2.0692,-2.0696,-2.0578,-2.0688,-2.0687,-2.0687,-2.0687,-2.0686,0,-2.0391,-2.0404,-2.0439,-2.0474,-2.0503,-2.0487,-2.0513,-2.0539,-2.0579,-2.06,-2.063,-2.0676,-2.0713,-2.0725,-2.076,-2.0785,-2.078,-2.0795,-2.0794,-2.0797,-2.0709,-2.0695,-2.0799,-2.0799,-2.0799,-2.0799,-2.0799,-2.0799,-2.0453,-2.0508,-2.051,-2.0575,-2.0587,-2.0631,-2.0648,-2.0669,-2.0686,-2.0738,-2.0768,-2.0776,-2.0793,-2.0829,-2.0862,-2.0864,-2.0879,-2.0896,-2.0896,-2.0814,-2.0803,-2.0792,-2.078,-2.0899,-2.0899,-2.0982,-2.0982,-2.0983]}]]